METEOR-M2 3

Last updated on Thu Nov 21 2024 00:02:20 GMT+0000 (Coordinated Universal Time)

1 57166U 23091A 24325.53265688 .00000057 00000+0 43943-4 0 9997 2 57166 98.6929 18.6489 0004686 48.2888 311.8691 14.23952841 72870
UTC large
Height (km)
Speed (km/s)
/
Latitude / Longitude
Inclination (degrees)
Orbital Period (minutes)
Azimuth
Elevation
Range (km)
Doppler Factor

Next 0 passes for location: London (51.5072 / 0.1276)

Sorry there are no passes over London.